User: anonymous   Login
Location: Taukkyan
(23.1052°N, 94.0030°E)
Time: 09:34:49
(UTC+00:00)
Language:

Meteosat 1 Rocket2 - Orbit

View from above orbital plane
View from above orbital plane
View from above satellite
View from above satellite

Ground track
Ground track

The orbit data is extracted from the following two-line orbital elements,

1 10490U 77108B   20271.85223704 +.00000413 +00000-0 +85040-4 0  9999
2 10490 028.2949 115.7355 1171398 096.5020 276.9919 12.66549638954369
Epoch (UTC): 27 September 2020 20:27:13
Eccentricity: 0.1171398
inclination: 28.2949°
perigee height: 485 km
apogee height: 2306 km
right ascension of ascending node: 115.7355°
argument of perigee: 96.5020°
revolutions per day: 12.66549638
mean anomaly at epoch: 276.9919°
orbit number at epoch: 95436

The dashed part of the orbit path shows where the satellite is in the earth's shadow,  

DLR